This demonstration page uses our WeatherBlox Daily Observations layout. Learn more.

Left ArrowRight Arrow

53.62937, 11.41316

Hourly Observations for September 28, 2021

Temp ( °F °C ) Dew Point ( °F °C ) Humidity (%) Winds ( mph kmh ) Pressure ( in mb ) Visibility ( mi km ) Precip ( " mm )
6:20 am 06:20 Partly Cloudy 54 12 54 12 100 100 SW 5 7 30.12 1020 4 7 N/A
6:50 am 06:50 Partly Cloudy with Mist and Fog 54 12 54 12 100 100 SW 5 7 30.15 1021 1 1 N/A
7:20 am 07:20 Mostly Cloudy with Mist and Fog 54 12 54 12 100 100 SW 6 9 30.15 1021 3 5 N/A
7:50 am 07:50 Mostly Cloudy with Mist and Fog 54 12 54 12 100 100 SSW 6 9 30.15 1021 2 4 N/A
8:20 am 08:20 Mostly Cloudy with Mist and Fog 54 12 54 12 100 100 SW 6 9 30.18 1022 2 4 N/A
8:50 am 08:50 Mostly Cloudy with Mist and Fog 54 12 54 12 100 100 SSW 7 11 30.18 1022 3 5 N/A
9:20 am 09:20 Mostly Cloudy 55 13 55 13 100 100 SW 7 11 30.18 1022 4 6 N/A
9:50 am 09:50 Mostly Cloudy 55 13 54 12 94 94 SW 6 9 30.21 1023 30 48 N/A
10:20 am 10:20 Partly Cloudy 57 14 55 13 94 94 SW 5 7 30.21 1023 30 48 N/A
10:50 am 10:50 Partly Cloudy 59 15 54 12 82 82 SW 5 7 30.21 1023 30 48 N/A
11:20 am 11:20 Mostly Sunny 59 15 54 12 82 82 SSW 5 7 30.21 1023 30 48 N/A
11:50 am 11:50 Partly Cloudy 61 16 54 12 77 77 S 3 6 30.21 1023 30 48 N/A
12:20 pm 12:20 Partly Cloudy 63 17 55 13 77 77 S 5 7 30.21 1023 30 48 N/A
12:50 pm 12:50 Partly Cloudy 63 17 52 11 68 68 SSW 6 9 30.21 1023 30 48 N/A
1:20 pm 13:20 Partly Cloudy 64 18 52 11 64 64 SW 5 7 30.21 1023 30 48 N/A
1:50 pm 13:50 Partly Cloudy 66 19 52 11 60 60 S 6 9 30.18 1022 30 48 N/A
2:20 pm 14:20 Partly Cloudy 64 18 50 10 60 60 SW 5 7 30.18 1022 30 48 N/A
2:50 pm 14:50 Mostly Sunny 66 19 50 10 56 56 VRB 2 4 30.18 1022 30 48 N/A
3:20 pm 15:20 Mostly Sunny 64 18 48 9 56 56 SW 5 7 30.18 1022 30 48 N/A
3:50 pm 15:50 Mostly Sunny 64 18 50 10 60 60 VRB 2 4 30.18 1022 30 48 N/A
4:20 pm 16:20 Mostly Sunny 66 19 48 9 52 52 VRB 2 4 30.18 1022 30 48 N/A
4:50 pm 16:50 Mostly Sunny 64 18 46 8 52 52 ENE 5 7 30.18 1022 30 48 N/A
5:20 pm 17:20 Mostly Sunny 64 18 50 10 60 60 E 3 6 30.18 1022 30 48 N/A
5:50 pm 17:50 Mostly Sunny 64 18 50 10 60 60 VRB 2 4 30.18 1022 7 11 N/A
6:20 pm 18:20 Mostly Sunny 64 18 52 11 64 64 E 2 4 30.18 1022 7 11 N/A
6:50 pm 18:50 Mostly Sunny 61 16 54 12 77 77 VRB 1 2 30.18 1022 7 11 N/A
7:20 pm 19:20 Mostly Clear 59 15 54 12 82 82 N 1 2 30.18 1022 7 11 N/A
7:50 pm 19:50 Mostly Clear 57 14 54 12 88 88 NNE 2 4 30.18 1022 7 11 N/A
8:20 pm 20:20 Mostly Clear 57 14 52 11 82 82 NE 2 4 30.18 1022 30 48 N/A
8:50 pm 20:50 Mostly Clear 55 13 54 12 94 94 VRB 1 2 30.18 1022 7 11 N/A
9:20 pm 21:20 Mostly Clear 54 12 50 10 88 88 VRB 1 2 30.18 1022 7 11 N/A
9:50 pm 21:50 Mostly Clear 52 11 50 10 94 94 VRB 1 2 30.18 1022 7 11 N/A

Powered by AerisWeather